Wind_Speed
19 17 15 14 14 15 15 14 14 14 15 12 11 11 11 10 11 11 12 10 11 12 12 13 14 14 15 15 14 15 16 15 16 18 20 20 18 15 15 16 17 14 15
22 17 15 15 14 15 15 15 14 14 13 12 9 8 7 8 8 9 9 9 11 12 13 13 15 14 14 14 13 14 13 14 15 18 21 19 17 18 17 15 16 14 13
23 17 15 16 14 16 15 15 14 13 12 11 9 8 6 7 8 9 9 10 13 12 14 14 14 14 14 13 12 12 12 12 12 16 22 18 16 15 16 15 15 14 13
22 17 15 17 16 16 17 16 14 14 13 12 9 8 6 6 8 10 9 11 12 13 14 15 14 14 13 12 12 13 12 10 8 7 9 16 13 14 14 14 14 13 12
21 19 16 17 17 18 17 16 15 15 14 12 10 7 6 7 8 10 10 11 14 14 15 15 15 14 13 11 12 15 11 7 4 8 12 16 13 12 12 13 12 11 11
20 18 16 17 18 16 17 14 13 13 13 12 9 7 7 8 9 9 11 13 14 14 13 13 13 11 9 10 13 11 8 7 9 12 15 16 12 12 11 11 10 10 9
20 18 18 19 19 18 15 13 13 12 12 12 8 7 8 9 10 10 12 13 13 13 12 12 11 11 10 9 10 8 6 6 7 19 16 9 12 11 10 9 9 9 9
21 18 17 18 18 16 14 13 12 12 13 12 10 9 9 9 9 11 13 12 11 11 11 10 10 10 8 7 8 9 7 6 10 16 15 10 10 9 7 6 7 6 7
19 17 16 14 15 12 11 12 12 13 13 14 13 13 12 11 10 12 12 11 10 10 9 9 10 9 8 7 6 8 8 9 8 6 11 10 9 7 6 6 5 6 6
22 22 22 19 16 15 11 11 11 13 15 17 17 17 13 11 10 12 13 11 9 8 8 8 8 8 7 6 5 9 9 6 7 14 14 8 9 8 6 6 7 5 4
18 20 19 20 16 16 14 12 13 14 16 17 13 12 16 14 13 11 11 10 9 8 8 7 7 7 6 5 6 4 4 5 7 16 9 7 7 7 5 5 7 7 6
17 13 16 16 18 16 15 15 14 16 17 15 13 11 11 5 13 10 10 10 9 8 8 8 7 7 8 7 7 5 3 1 10 7 8 7 7 7 6 2 4 4 4
21 14 14 18 18 17 16 17 16 16 16 10 8 3 3 13 10 11 12 12 12 11 10 8 8 6 9 11 18 9 5 5 9 10 7 6 6 6 6 5 3 2 2
22 17 17 19 18 17 17 17 16 16 13 9 10 11 9 16 15 15 9 12 12 13 8 11 12 3 3 3 9 4 2 4 13 9 8 5 4 4 4 5 6 8 8
25 21 18 18 20 20 21 16 15 13 10 7 9 7 9 9 11 6 10 8 12 19 11 10 11 5 5 8 4 1 4 4 5 8 6 4 2 1 3 5 7 9 10
31 27 23 20 20 20 19 18 14 13 9 8 8 7 3 6 8 5 9 10 10 4 9 3 5 5 10 10 8 2 2 7 3 3 6 4 3 1 3 4 6 8 11
30 31 28 22 19 17 12 10 14 15 14 20 11 10 6 7 10 4 11 5 4 5 3 4 4 7 7 5 7 6 4 4 7 2 5 11 6 7 7 6 4 6 10
34 32 28 21 20 18 15 14 15 15 18 23 19 13 13 9 8 6 3 6 2 5 3 6 14 14 9 3 6 10 6 4 7 8 9 4 6 7 5 8 4 7 7
29 30 29 24 27 19 20 16 13 11 7 8 14 10 9 8 11 7 7 12 2 7 4 6 12 13 5 7 3 7 6 6 8 12 11 11 3 10 4 4 3 11 6
26 19 18 27 23 20 20 19 16 17 15 11 10 16 15 11 9 11 4 4 4 11 12 1 13 11 9 9 8 11 10 15 17 18 20 9 12 11 4 4 3 8 3
24 21 17 21 25 18 17 16 14 20 15 20 17 16 17 12 11 14 9 5 6 1 7 1 5 16 18 4 9 13 10 21 18 23 22 15 3 5 9 4 3 3 3
26 24 20 20 25 21 20 18 15 14 13 12 19 16 12 9 10 13 11 8 8 3 0 3 5 11 16 8 3 5 1 9 12 17 27 21 6 6 2 9 7 2 6
31 30 25 22 26 25 21 18 13 13 12 15 16 14 15 12 11 11 9 12 5 6 5 4 4 7 11 9 4 2 3 3 8 19 10 2 6 12 5 2 3 10 7
31 31 31 25 28 26 19 19 15 11 12 14 16 16 19 16 14 14 13 10 8 8 8 6 5 9 6 13 11 9 2 1 2 4 2 11 12 14 5 3 4 12 8
35 31 32 30 28 25 24 20 20 18 14 10 18 23 20 19 17 14 14 13 12 10 9 10 6 6 10 12 13 13 7 3 9 8 5 8 21 8 7 4 2 7 12
35 33 32 32 28 27 29 25 21 23 21 7 10 18 20 19 20 18 15 15 13 12 12 8 9 9 12 11 9 6 6 8 8 5 6 9 11 13 1 7 3 9 10
Wind_Direction
135 128 119 106 102 105 103 104 103 114 121 112 112 101 94 98 99 101 105 109 106 102 101 99 98 95 98 99 104 102 101 101 98 96 93 89 87 89 95 104 99 96 101
135 129 117 108 105 111 107 108 112 115 119 119 116 103 92 96 101 104 107 110 108 105 104 105 99 99 100 100 103 103 108 107 103 105 98 90 85 90 92 96 105 105 106
134 128 117 112 108 114 112 113 114 120 120 121 121 117 108 104 107 106 113 114 112 112 109 103 100 98 97 102 102 110 117 115 111 110 86 92 88 91 99 108 106 107 106
133 134 116 117 113 115 113 111 114 116 116 116 117 118 106 116 119 124 120 113 110 110 111 105 103 98 100 104 105 113 109 111 109 142 109 102 101 100 100 106 110 111 115
138 136 120 120 112 109 111 111 113 115 118 116 118 116 133 135 128 123 117 115 115 114 111 107 101 100 96 96 107 117 119 115 115 86 97 116 112 109 106 103 99 123 117
138 133 130 117 112 115 112 108 110 114 118 120 117 135 141 146 135 126 122 116 118 115 111 110 109 110 106 101 116 123 110 88 91 100 114 114 121 115 122 131 136 133 133
136 140 132 126 124 115 115 114 112 114 116 113 117 131 150 147 136 135 127 120 119 116 114 116 115 108 103 104 119 127 103 74 92 132 126 127 125 134 134 135 126 122 122
137 144 145 142 132 121 110 115 114 110 111 112 111 123 126 131 139 135 128 126 126 118 124 124 112 104 101 111 117 140 122 93 72 111 120 127 136 125 122 128 115 109 102
125 132 150 157 149 147 116 109 115 104 111 115 108 110 112 120 136 134 130 132 130 128 136 128 115 110 110 114 130 152 146 105 104 152 126 123 132 134 139 127 108 92 99
129 128 123 128 145 130 124 117 124 115 115 117 111 107 100 125 131 135 134 138 142 143 146 139 132 134 136 134 130 145 156 174 169 123 138 117 130 136 145 133 124 109 85
121 144 142 144 144 142 135 128 124 130 127 131 131 140 141 134 130 132 158 156 154 158 156 158 163 168 168 189 168 170 211 255 250 146 123 116 139 139 149 151 129 131 107
143 144 117 113 132 131 130 142 134 137 138 138 139 155 176 160 148 152 166 150 161 166 165 176 190 206 215 239 237 204 223 324 82 124 95 122 146 156 170 167 121 113 101
171 129 127 129 142 139 137 146 141 137 137 142 147 128 107 165 166 162 158 154 171 176 190 208 205 242 255 260 246 223 170 202 136 130 95 121 145 168 184 213 239 218 280
142 136 142 146 150 145 141 148 147 140 137 127 117 137 143 165 174 171 185 184 199 210 197 242 252 183 272 9 356 47 20 56 129 126 103 116 143 171 199 241 263 277 282
154 156 154 155 156 157 150 152 145 141 161 138 159 176 191 235 178 187 175 149 209 215 187 223 160 196 178 191 64 41 313 83 86 136 108 110 126 178 238 258 270 278 284
160 157 158 163 162 166 170 169 179 184 180 168 196 198 268 225 179 203 199 225 230 160 150 107 184 216 244 203 128 40 248 134 234 110 175 189 168 241 254 265 283 291 293
143 153 166 162 160 169 183 179 201 220 198 202 184 221 279 137 199 284 215 230 184 204 340 208 226 259 252 154 144 158 194 125 142 200 246 222 246 242 256 263 294 316 330
148 159 162 163 170 180 185 190 201 209 230 194 185 211 173 238 212 240 73 250 317 144 268 319 292 269 235 247 149 197 157 190 199 227 229 236 266 272 261 265 289 337 336
146 156 171 166 175 177 179 199 198 213 186 148 182 178 177 196 247 263 111 175 249 329 50 286 345 344 299 250 70 220 196 239 240 247 230 216 44 276 297 254 352 340 326
151 157 167 167 175 164 179 206 201 208 203 185 202 182 181 202 243 265 308 259 282 34 82 235 283 322 322 47 24 300 25 26 24 346 303 196 240 207 257 148 358 339 2
152 165 179 161 160 159 174 216 209 198 207 188 205 182 175 197 215 264 283 254 249 13 93 313 332 320 306 17 60 355 4 10 351 353 283 317 96 287 46 186 116 133 21
158 165 181 170 162 169 183 212 216 202 199 204 159 157 172 196 203 247 269 285 269 330 358 168 264 301 317 345 70 304 78 52 262 238 265 302 325 285 103 172 107 293 126
160 166 178 179 173 181 192 204 225 216 203 198 160 169 183 205 206 220 255 259 312 303 276 229 261 294 316 332 254 208 90 209 213 244 252 43 280 282 9 189 31 186 153
163 168 174 181 178 188 198 191 198 219 207 192 191 215 194 198 208 221 230 243 254 261 295 247 266 253 298 298 321 237 191 258 341 5 197 293 330 261 209 9 73 170 180
165 170 171 180 181 190 201 196 185 215 230 198 199 206 193 197 210 223 221 223 230 244 257 262 252 230 248 278 294 326 352 270 100 49 294 297 308 290 82 354 92 148 152
164 168 170 176 188 190 197 201 192 203 229 230 200 179 198 195 206 206 218 214 217 224 245 258 256 247 256 270 298 319 297 291 182 159 248 277 307 329 147 54 336 111 86
Height
799 801 803 804 806 807 808 809 810 811 813 815 817 819 819 821 823 824 824 824 824 824 825 826 827 828 829 830 829 829 830 830 829 829 829 831 832 835 835 835 836 840 840
798 802 803 805 806 807 809 810 812 813 814 816 819 819 821 823 825 825 825 826 826 827 828 828 828 830 831 831 832 833 833 833 833 831 830 832 833 835 836 839 840 842 843
798 803 804 805 807 809 810 812 814 815 816 818 820 820 822 825 826 827 827 827 828 828 830 830 831 832 833 833 833 833 833 834 835 835 835 835 836 838 839 840 841 843 844
799 803 806 807 809 811 811 814 816 817 818 820 821 822 825 827 827 829 830 830 830 831 832 832 833 834 834 835 834 834 834 835 836 837 837 839 840 840 841 841 842 842 843
800 804 807 809 811 811 814 816 818 819 820 821 822 823 826 828 830 830 831 831 832 833 834 835 835 836 836 836 835 834 835 836 837 837 839 841 841 843 843 843 842 843 845
801 805 809 810 811 814 816 819 820 821 822 822 823 826 827 829 830 831 832 833 834 836 837 837 837 838 838 837 836 836 836 836 836 839 840 842 843 843 843 843 843 843 843
803 807 810 812 813 816 819 820 822 823 823 823 825 827 829 830 831 833 834 835 837 838 838 839 839 839 839 838 838 837 837 836 837 839 839 841 843 843 843 843 843 844 845
803 808 811 813 814 817 820 822 822 823 824 825 828 830 831 832 834 835 836 837 839 839 839 840 840 840 839 839 839 838 837 837 838 840 840 843 843 844 844 845 846 847 849
805 808 810 813 815 818 821 823 825 824 825 828 830 832 832 833 835 836 838 839 840 840 841 840 840 840 840 840 840 839 838 838 838 841 841 842 844 846 845 847 849 849 850
806 809 811 813 816 819 823 825 824 826 828 830 832 831 832 835 838 838 840 840 840 840 841 840 840 840 839 839 839 838 839 838 839 841 841 842 844 845 845 847 848 848 849
808 810 811 813 817 821 824 825 826 828 829 831 832 831 836 837 839 840 840 841 841 841 841 840 840 840 839 838 838 839 839 837 839 840 840 842 844 844 844 844 847 846 846
808 810 812 815 818 821 823 825 827 828 830 831 832 833 837 839 839 840 839 839 840 840 840 839 839 840 840 838 837 838 837 836 838 838 840 842 844 844 843 843 846 846 845
809 812 815 816 819 821 823 825 827 828 831 832 831 831 833 836 837 838 838 837 838 839 838 839 839 838 837 836 836 836 835 836 836 837 839 841 843 843 842 842 843 845 844
808 811 814 817 819 822 823 825 827 829 831 831 830 830 832 834 835 837 836 837 838 837 838 840 839 837 837 836 835 835 835 836 835 836 838 840 841 841 842 842 842 842 842
803 809 813 816 819 822 824 825 827 828 829 829 829 830 832 836 835 835 837 840 835 836 837 836 836 836 836 836 836 837 836 836 837 836 837 838 839 840 840 840 840 840 840
800 807 813 816 819 821 823 825 826 827 828 830 830 831 832 832 833 836 835 835 837 835 835 836 836 835 834 836 836 837 837 836 838 838 836 835 836 836 836 836 837 837 837
800 804 809 814 819 821 823 825 825 827 827 829 829 832 834 834 831 835 835 832 835 835 837 836 836 835 833 834 835 836 836 836 836 837 835 833 833 833 832 833 834 835 834
795 805 810 812 816 820 822 824 825 826 828 828 830 831 837 836 832 833 837 834 837 839 838 837 838 836 835 833 834 834 835 835 834 833 834 838 837 835 832 831 832 833 834
795 801 806 810 813 817 821 823 825 825 826 829 829 829 833 835 832 832 840 837 841 839 839 840 834 834 835 834 835 836 835 834 832 829 833 832 831 834 832 830 832 834 834
793 799 805 809 812 816 820 821 823 824 826 827 828 830 831 833 832 833 837 838 838 841 838 835 838 837 836 837 833 838 837 834 830 829 831 832 832 830 829 829 830 832 834
790 798 803 807 811 814 818 819 821 822 823 825 827 828 831 832 833 831 834 835 837 840 838 841 838 838 835 836 838 832 836 835 831 832 829 830 829 828 826 829 830 830 830
787 795 802 806 809 813 817 818 820 820 822 824 825 828 830 831 833 833 834 836 836 838 840 840 841 839 835 833 835 837 841 840 835 837 832 832 826 825 825 827 828 830 828
781 790 798 803 806 811 814 817 818 819 821 823 824 827 828 830 832 833 834 834 836 836 837 838 838 837 836 834 834 834 838 845 841 833 835 828 821 825 826 824 824 826 828
775 783 791 799 803 808 812 814 817 818 819 821 823 826 827 828 830 832 833 834 835 835 836 837 836 835 835 834 834 833 833 835 837 837 834 829 830 828 823 823 822 825 824
768 777 784 793 799 804 808 811 814 817 817 818 820 821 823 825 828 829 831 832 833 834 835 834 834 834 834 834 833 833 833 835 836 838 837 828 826 824 822 822 821 822 826
763 770 779 787 795 800 804 808 812 814 814 816 816 818 822 823 824 824 827 829 830 831 833 833 834 834 833 833 833 833 834 834 832 833 836 829 825 822 820 820 823 823 828